Location: *
(47.2969°N, 10.2930°E)
Time: 02:11:15
(UTC+00:00)

STARLINK-29 - Pass Details

Date: 09 April 2020
Orbit: 387 x 401 km, 53.0° (Epoch: 03 June)

Event Time Altitude Azimuth Distance (km) Brightness Sun altitude
Rises 18:37:18 0° 223° (SW) 2,274 7.1 -6.9°
Reaches altitude 10° 18:39:24 10° 216° (SW) 1,424 6.0 -7.2°
Maximum altitude 18:42:26 43° 143° (SE) 567 3.3 -7.7°
Drops below altitude 10° 18:45:31 10° 71° (ENE) 1,441 5.3 -8.2°
Enters shadow 18:46:34 - 67° (ENE) 1,864 5.9 -8.4°
